Location: PSU-Greenbush Astrophysical Observatory
(37.5140°N, 94.9880°W)
Time: 15:05:10
(UTC-06:00)

Transit 2A - Pass Details

Date: 24 January 2020
Orbit: 600 x 959 km, 66.7° (Epoch: 19 February)

Event Time Altitude Azimuth Distance (km) Brightness Sun altitude
Rises 04:24:34 0° 345° (NNW) 2,986 - -36.6°
Reaches altitude 10° 04:27:16 10° 1° (N) 2,124 - -36.1°
Exits shadow 04:30:54 22° 51° (NE) 1,533 7.9 -35.3°
Maximum altitude 04:31:01 22° 53° (NE) 1,534 8.0 -35.3°
Drops below altitude 10° 04:35:02 10° 104° (ESE) 2,290 9.2 -34.5°
Sets 04:38:03 0° 119° (ESE) 3,287 10.1 -33.9°
